Regional Weather Roundup
Issued by NWS Raleigh/Durham, NC

Home | Current Version | Previous Version | Text Only | Print | Product List | Glossary On
Versions: 1 2 3 4 5 6 7 8 9 10 11 12 13 14 15 16 17 18 19 20 21 22 23 24 25 26 27 28
000
ASUS42 KRAH 250310
RWRRAH
NORTH CAROLINA WEATHER ROUNDUP
NATIONAL WEATHER SERVICE RALEIGH NC
1100 PM EDT FRI OCT 24 2014

NOTE: "FAIR" INDICATES FEW OR NO CLOUDS BELOW 12,000 FEET WITH NO
SIGNIFICANT WEATHER AND/OR OBSTRUCTIONS TO VISIBILITY.

NCZ001-053-055-056-065-067-250400-
WESTERN NORTH CAROLINA

CITY           SKY/WX    TMP DP  RH WIND       PRES   REMARKS
ASHEVILLE      CLEAR     47  39  74 CALM      30.07F
JEFFERSON      CLEAR     51  28  40 CALM      30.06F
MORGANTON      CLEAR     42  42 100 CALM      30.07S
HICKORY        CLEAR     50  46  86 CALM      30.03S
RUTHERFORDTON  CLEAR     45  44  96 CALM      30.04S
MOUNT AIRY     CLEAR     49  40  73 CALM      30.04S
BOONE          CLEAR     45  36  70 W3        30.09R
$$

NCZ021-022-025-041-071-084-088-250400-
CENTRAL NORTH CAROLINA

CITY           SKY/WX    TMP DP  RH WIND       PRES   REMARKS
CHARLOTTE      CLEAR     48  44  86 CALM      30.03S
GREENSBORO     CLEAR     51  43  74 CALM      30.00S
WINSTON-SALEM  CLEAR     56  38  50 NW9       30.02S
RALEIGH-DURHAM PTCLDY    49  46  90 CALM      30.00S
FORT BRAGG     MOCLDY    53  49  89 CALM      30.00R
FAYETTEVILLE   MOCLDY    54  50  86 SW6       30.01R
BURLINGTON     CLEAR     46  42  86 CALM      30.00S
LAURINBURG     MOCLDY    50  48  93 NE3       30.02S
$$

NCZ011-015-027-028-043-044-047-080-103-250400-
NORTHEASTERN NORTH CAROLINA

CITY           SKY/WX    TMP DP  RH WIND       PRES   REMARKS
ROCKY MT-WILSO CLEAR     48  46  93 CALM      29.99S
GREENVILLE       N/A     50  50 100 CALM      30.00S FOG
WASHINGTON     CLEAR     50  48  95 CALM      29.99S
ELIZABETH CITY CLEAR     54  45  71 W3        29.97S
MANTEO         CLEAR     56  53  88 W3        29.97S
CAPE HATTERAS  CLEAR     58  54  86 NW3       29.97S
$$

NCZ078-087-090-091-093-098-101-250400-
SOUTHEASTERN NORTH CAROLINA

CITY           SKY/WX    TMP DP  RH WIND       PRES   REMARKS
LUMBERTON      PTCLDY    49  46  90 CALM      30.01R
GOLDSBORO      MOCLDY    52  50  93 CALM      29.98S FOG
KINSTON        MOCLDY    49  48  96 CALM      30.00S
KENANSVILLE    PTCLDY    46  45  97 CALM      30.00F
NEW BERN       CLEAR     53  48  83 CALM      30.00S
CHERRY POINT   CLEAR     53  49  86 CALM      30.00S
BEAUFORT       CLEAR     59  51  75 NW6       29.98F
JACKSONVILLE   PTCLDY    52  50  93 W5        29.98F
WILMINGTON     PTCLDY    53  51  93 CALM      29.99F
$$




USA.gov is the U.S. government's official web portal to all federal, state and local government web resources and services.